TimeCDT,TemperatureF,Dew PointF,Humidity,Sea Level PressureIn,VisibilityMPH,Wind Direction,Wind SpeedMPH,Gust SpeedMPH,PrecipitationIn,Events,Conditions,WindDirDegrees,DateUTC
12:15 AM,33.8,33.8,100,29.72,9.0,North,16.1,21.9,N/A,,Overcast,360,2013-03-10 06:15:00
12:35 AM,33.8,33.8,100,29.71,10.0,North,16.1,23.0,N/A,,Overcast,10,2013-03-10 06:35:00
12:55 AM,33.8,33.8,100,29.72,10.0,North,17.3,24.2,N/A,,Overcast,360,2013-03-10 06:55:00
1:15 AM,33.8,33.8,100,29.72,10.0,North,17.3,-,N/A,,Overcast,10,2013-03-10 07:15:00
1:35 AM,33.8,33.8,100,29.74,8.0,North,16.1,21.9,N/A,,Overcast,360,2013-03-10 07:35:00
1:55 AM,33.8,33.8,100,29.74,5.0,North,16.1,26.5,N/A,,Overcast,350,2013-03-10 07:55:00
3:15 AM,33.8,33.8,100,29.73,5.0,North,18.4,-,N/A,,Light Drizzle,360,2013-03-10 08:15:00
3:35 AM,33.8,33.8,100,29.69,2.5,North,21.9,29.9,N/A,Rain,Light Rain,10,2013-03-10 08:35:00
3:55 AM,33.8,33.8,100,29.71,3.0,North,17.3,27.6,N/A,,Light Drizzle,10,2013-03-10 08:55:00
4:15 AM,33.8,33.8,100,29.72,4.0,North,19.6,29.9,N/A,,Light Drizzle,360,2013-03-10 09:15:00
4:35 AM,33.8,33.8,100,29.71,2.5,North,20.7,-,N/A,Rain,Rain,360,2013-03-10 09:35:00
4:55 AM,33.8,33.8,100,29.74,2.5,North,18.4,26.5,0.02,,Overcast,360,2013-03-10 09:55:00
5:15 AM,33.8,33.8,100,29.73,3.0,North,19.6,29.9,N/A,Rain,Light Rain,360,2013-03-10 10:15:00
5:35 AM,33.8,33.8,100,29.75,3.0,North,18.4,27.6,N/A,Rain,Light Rain,360,2013-03-10 10:35:00
5:55 AM,33.8,33.8,100,29.76,4.0,North,20.7,28.8,N/A,Rain,Light Rain,360,2013-03-10 10:55:00
6:15 AM,33.8,33.8,100,29.77,4.0,North,17.3,25.3,N/A,,Light Drizzle,360,2013-03-10 11:15:00
7:15 AM,33.8,33.8,100,29.78,7.0,North,21.9,29.9,N/A,,Overcast,10,2013-03-10 12:15:00
7:55 AM,33.8,33.8,100,29.80,6.0,North,21.9,27.6,N/A,,Light Drizzle,10,2013-03-10 12:55:00
8:15 AM,33.8,32.0,93,29.82,4.0,North,19.6,34.5,N/A,,Light Drizzle,360,2013-03-10 13:15:00
8:35 AM,32.0,32.0,100,29.81,1.8,North,23.0,33.4,N/A,Rain,Rain,10,2013-03-10 13:35:00
8:55 AM,32.0,32.0,100,29.80,0.8,North,23.0,35.7,0.01,,Overcast,10,2013-03-10 13:55:00
9:15 AM,32.0,32.0,100,29.83,1.0,North,20.7,29.9,N/A,Rain,Light Rain,10,2013-03-10 14:15:00
9:35 AM,32.0,32.0,100,29.82,1.0,North,24.2,32.2,N/A,Rain,Rain,10,2013-03-10 14:35:00
9:55 AM,32.0,32.0,100,29.84,1.5,NNE,19.6,32.2,0.01,Rain,Light Rain,20,2013-03-10 14:55:00
10:15 AM,32.0,32.0,100,29.84,2.0,North,19.6,28.8,N/A,,Overcast,10,2013-03-10 15:15:00
10:35 AM,32.0,32.0,100,29.83,1.2,North,21.9,27.6,N/A,Rain,Rain,10,2013-03-10 15:35:00
10:55 AM,32.0,32.0,100,29.80,1.8,NNE,24.2,32.2,N/A,Rain,Light Rain,20,2013-03-10 15:55:00
11:15 AM,32.0,32.0,100,29.83,1.5,North,25.3,36.8,N/A,Rain,Rain,10,2013-03-10 16:15:00
11:35 AM,32.0,32.0,100,29.84,2.5,NNE,15.0,27.6,N/A,Rain,Light Rain,20,2013-03-10 16:35:00
11:55 AM,32.0,32.0,100,29.82,1.8,North,20.7,27.6,N/A,,Overcast,360,2013-03-10 16:55:00
12:15 PM,32.0,32.0,100,29.81,2.0,North,20.7,28.8,N/A,Rain,Light Rain,360,2013-03-10 17:15:00
12:35 PM,32.0,32.0,100,29.80,2.5,North,23.0,29.9,N/A,Rain,Light Rain,360,2013-03-10 17:35:00
12:55 PM,32.0,32.0,100,29.81,3.0,North,19.6,29.9,N/A,,Light Drizzle,10,2013-03-10 17:55:00
1:15 PM,32.0,32.0,100,29.80,2.5,North,17.3,29.9,N/A,,Light Drizzle,10,2013-03-10 18:15:00
1:35 PM,32.0,32.0,100,29.79,3.0,North,19.6,26.5,N/A,,Light Drizzle,10,2013-03-10 18:35:00
1:55 PM,32.0,32.0,100,29.80,3.0,North,18.4,26.5,N/A,,Overcast,10,2013-03-10 18:55:00
2:15 PM,32.0,32.0,100,29.80,1.8,North,19.6,26.5,N/A,Rain,Rain,10,2013-03-10 19:15:00
2:35 PM,32.0,32.0,100,29.80,0.5,North,21.9,27.6,N/A,,Overcast,360,2013-03-10 19:35:00
2:55 PM,-9999,-9999,N/A,29.78,0.2,North,21.9,33.4,0.01,,Overcast,360,2013-03-10 19:55:00
3:15 PM,-9999,-9999,N/A,29.76,0.5,North,23.0,31.1,N/A,,Overcast,10,2013-03-10 20:15:00
3:35 PM,30.2,30.2,100,29.74,0.5,North,24.2,32.2,N/A,,Overcast,10,2013-03-10 20:35:00
3:55 PM,30.2,30.2,100,29.75,0.2,North,25.3,36.8,0.02,,Overcast,360,2013-03-10 20:55:00
4:15 PM,30.2,30.2,100,29.74,0.2,North,25.3,38.0,N/A,,Overcast,360,2013-03-10 21:15:00
4:35 PM,30.2,30.2,100,29.75,0.2,North,24.2,35.7,N/A,,Mostly Cloudy,360,2013-03-10 21:35:00
4:55 PM,30.2,30.2,100,29.77,0.2,North,25.3,34.5,N/A,Snow,Heavy Snow,360,2013-03-10 21:55:00
5:15 PM,30.2,30.2,100,29.77,0.2,North,24.2,38.0,N/A,Snow,Light Snow,360,2013-03-10 22:15:00
5:35 PM,30.2,30.2,100,29.78,0.2,North,23.0,36.8,N/A,Snow,Light Snow,360,2013-03-10 22:35:00
5:55 PM,30.2,30.2,100,29.79,0.2,North,24.2,33.4,0.02,Snow,Snow,360,2013-03-10 22:55:00
6:15 PM,30.2,30.2,100,29.78,0.2,North,24.2,36.8,N/A,Snow,Light Snow,360,2013-03-10 23:15:00
6:35 PM,30.2,30.2,100,29.78,0.2,North,24.2,31.1,N/A,Snow,Light Snow,360,2013-03-10 23:35:00
6:55 PM,30.2,30.2,100,29.78,0.2,North,28.8,35.7,0.02,Snow,Light Snow,360,2013-03-10 23:55:00
7:15 PM,30.2,30.2,100,29.79,0.2,North,25.3,33.4,N/A,Snow,Light Snow,360,2013-03-11 00:15:00
7:35 PM,28.4,28.4,100,29.79,0.2,North,25.3,36.8,N/A,Snow,Light Snow,360,2013-03-11 00:35:00
7:55 PM,28.4,28.4,100,29.78,0.2,North,27.6,40.3,0.02,Snow,Light Snow,360,2013-03-11 00:55:00
8:15 PM,28.4,28.4,100,29.78,0.2,North,26.5,39.1,N/A,Snow,Snow,360,2013-03-11 01:15:00
8:35 PM,28.4,28.4,100,29.78,0.2,North,27.6,34.5,N/A,Snow,Snow,360,2013-03-11 01:35:00
9:15 PM,28.4,28.4,100,29.79,0.2,North,24.2,31.1,N/A,Snow,Snow,360,2013-03-11 02:15:00
9:35 PM,28.4,28.4,100,29.79,0.2,North,21.9,33.4,N/A,Snow,Light Snow,360,2013-03-11 02:35:00
9:55 PM,28.4,28.4,100,29.79,0.2,North,24.2,33.4,0.01,Snow,Snow,360,2013-03-11 02:55:00
10:15 PM,28.4,28.4,100,29.79,0.2,North,25.3,33.4,N/A,Snow,Light Snow,350,2013-03-11 03:15:00
10:35 PM,28.4,28.4,100,29.80,0.2,North,24.2,33.4,N/A,Snow,Light Snow,350,2013-03-11 03:35:00
10:55 PM,-9999,-9999,N/A,29.80,0.5,North,27.6,33.4,0.01,,Unknown,350,2013-03-11 03:55:00
11:15 PM,26.6,26.6,100,29.80,0.5,North,25.3,34.5,N/A,Snow,Light Snow,350,2013-03-11 04:15:00
11:35 PM,26.6,26.6,100,29.80,0.5,North,26.5,32.2,N/A,Snow,Light Snow,350,2013-03-11 04:35:00
11:55 PM,26.6,26.6,100,29.80,0.8,North,24.2,34.5,N/A,Snow,Light Snow,350,2013-03-11 04:55:00
12:15 AM,26.6,26.6,100,29.79,0.8,North,24.2,32.2,N/A,Snow,Light Snow,350,2013-03-11 05:15:00
12:35 AM,26.6,26.6,100,29.79,1.0,North,26.5,33.4,N/A,Snow,Light Snow,350,2013-03-11 05:35:00
12:55 AM,26.6,26.6,100,29.79,1.0,North,23.0,32.2,N/A,Snow,Light Snow,350,2013-03-11 05:55:00